Time,TemperatureF,DewpointF,PressureIn,WindDirection,WindDirectionDegrees,WindSpeedMPH,WindSpeedGustMPH,Humidity,HourlyPrecipIn,Conditions,Clouds,dailyrainin,SoftwareType,DateUTC
2013-08-15 00:07:00,40.6,34.0,30.07,SSW,209,1.0,2.0,78,0.00,,,0.00,weatherlink.com 1.10,2013-08-15 06:07:00,
2013-08-15 00:22:00,39.7,34.0,30.07,SSW,210,1.0,1.0,80,0.00,,,0.00,weatherlink.com 1.10,2013-08-15 06:22:00,
2013-08-15 00:37:00,39.5,34.0,30.07,SSW,209,0.0,1.0,82,0.00,,,0.00,weatherlink.com 1.10,2013-08-15 06:37:00,
2013-08-15 00:52:00,39.3,34.0,30.07,SSW,209,0.0,1.0,80,0.00,,,0.00,weatherlink.com 1.10,2013-08-15 06:52:00,
2013-08-15 01:07:00,39.4,33.0,30.07,SSW,210,0.0,3.0,79,0.00,,,0.00,weatherlink.com 1.10,2013-08-15 07:07:00,
2013-08-15 01:22:00,38.9,33.0,30.07,SSW,210,0.0,1.0,80,0.00,,,0.00,weatherlink.com 1.10,2013-08-15 07:22:00,
2013-08-15 01:37:00,38.4,33.0,30.07,SSW,210,0.0,1.0,82,0.00,,,0.00,weatherlink.com 1.10,2013-08-15 07:37:00,
2013-08-15 01:52:00,37.4,33.0,30.07,SSW,210,0.0,1.0,83,0.00,,,0.00,weatherlink.com 1.10,2013-08-15 07:52:00,
2013-08-15 02:07:00,37.3,33.0,30.07,SSW,210,1.0,2.0,84,0.00,,,0.00,weatherlink.com 1.10,2013-08-15 08:07:00,
2013-08-15 02:22:00,37.4,33.0,30.07,SSW,205,0.0,1.0,83,0.00,,,0.00,weatherlink.com 1.10,2013-08-15 08:22:00,
2013-08-15 02:37:00,36.8,32.0,30.07,SSW,205,1.0,1.0,84,0.00,,,0.00,weatherlink.com 1.10,2013-08-15 08:37:00,
2013-08-15 02:52:00,36.5,32.0,30.07,SSW,205,0.0,1.0,85,0.00,,,0.00,weatherlink.com 1.10,2013-08-15 08:52:00,
2013-08-15 03:07:00,36.1,32.0,30.08,SSW,205,0.0,0.0,85,0.00,,,0.00,weatherlink.com 1.10,2013-08-15 09:07:00,
2013-08-15 03:22:00,36.0,32.0,30.08,SSW,210,1.0,2.0,85,0.00,,,0.00,weatherlink.com 1.10,2013-08-15 09:22:00,
2013-08-15 03:37:00,35.6,32.0,30.08,SSW,210,0.0,1.0,87,0.00,,,0.00,weatherlink.com 1.10,2013-08-15 09:37:00,
2013-08-15 03:52:00,35.3,32.0,30.08,SSW,209,0.0,1.0,87,0.00,,,0.00,weatherlink.com 1.10,2013-08-15 09:52:00,
2013-08-15 04:07:00,35.1,32.0,30.08,SSW,209,0.0,1.0,87,0.00,,,0.00,weatherlink.com 1.10,2013-08-15 10:07:00,
2013-08-15 04:23:00,34.9,32.0,30.08,SSW,209,0.0,1.0,88,0.00,,,0.00,weatherlink.com 1.10,2013-08-15 10:23:00,
2013-08-15 04:38:00,34.7,32.0,30.09,SSW,209,0.0,1.0,88,0.00,,,0.00,weatherlink.com 1.10,2013-08-15 10:38:00,
2013-08-15 04:53:00,34.6,31.0,30.09,SSW,207,0.0,2.0,88,0.00,,,0.00,weatherlink.com 1.10,2013-08-15 10:53:00,
2013-08-15 05:08:00,34.7,32.0,30.09,SSW,212,0.0,2.0,88,0.00,,,0.00,weatherlink.com 1.10,2013-08-15 11:08:00,
2013-08-15 05:23:00,34.5,31.0,30.10,SSW,210,0.0,2.0,88,0.00,,,0.00,weatherlink.com 1.10,2013-08-15 11:23:00,
2013-08-15 05:38:00,34.1,31.0,30.10,SSW,210,0.0,1.0,89,0.00,,,0.00,weatherlink.com 1.10,2013-08-15 11:38:00,
2013-08-15 05:53:00,33.8,31.0,30.10,SSW,210,0.0,1.0,90,0.00,,,0.00,weatherlink.com 1.10,2013-08-15 11:53:00,
2013-08-15 06:08:00,33.6,31.0,30.11,SSW,207,0.0,1.0,90,0.00,,,0.00,weatherlink.com 1.10,2013-08-15 12:08:00,
2013-08-15 06:23:00,33.7,31.0,30.11,SSW,208,0.0,2.0,90,0.00,,,0.00,weatherlink.com 1.10,2013-08-15 12:23:00,
2013-08-15 06:38:00,34.2,31.0,30.11,SSW,212,0.0,2.0,89,0.00,,,0.00,weatherlink.com 1.10,2013-08-15 12:38:00,
2013-08-15 06:53:00,34.1,32.0,30.12,SSW,207,0.0,1.0,90,0.00,,,0.00,weatherlink.com 1.10,2013-08-15 12:53:00,
2013-08-15 07:08:00,34.2,32.0,30.12,SSW,207,0.0,1.0,90,0.00,,,0.00,weatherlink.com 1.10,2013-08-15 13:08:00,
2013-08-15 07:23:00,36.9,33.0,30.12,SSW,207,1.0,1.0,87,0.00,,,0.00,weatherlink.com 1.10,2013-08-15 13:23:00,
2013-08-15 07:38:00,39.5,34.0,30.12,SSW,207,0.0,1.0,82,0.00,,,0.00,weatherlink.com 1.10,2013-08-15 13:38:00,
2013-08-15 07:53:00,42.5,36.0,30.12,SSW,207,0.0,1.0,78,0.00,,,0.00,weatherlink.com 1.10,2013-08-15 13:53:00,
2013-08-15 08:08:00,45.0,38.0,30.12,SSW,207,0.0,0.0,75,0.00,,,0.00,weatherlink.com 1.10,2013-08-15 14:08:00,
2013-08-15 08:24:00,47.8,39.0,30.11,SSW,207,0.0,1.0,72,0.00,,,0.00,weatherlink.com 1.10,2013-08-15 14:24:00,
2013-08-15 08:38:00,51.2,41.0,30.11,SSW,200,0.0,0.0,68,0.00,,,0.00,weatherlink.com 1.10,2013-08-15 14:38:00,
2013-08-15 08:53:00,52.0,40.0,30.09,South,186,0.0,1.0,63,0.00,,,0.00,weatherlink.com 1.10,2013-08-15 14:53:00,
2013-08-15 09:08:00,53.7,37.0,30.09,SSE,165,2.0,3.0,54,0.00,,,0.00,weatherlink.com 1.10,2013-08-15 15:08:00,
2013-08-15 09:23:00,55.2,37.0,30.08,South,174,0.0,3.0,50,0.00,,,0.00,weatherlink.com 1.10,2013-08-15 15:23:00,
2013-08-15 09:38:00,57.4,38.0,30.07,SE,143,3.0,6.0,49,0.00,,,0.00,weatherlink.com 1.10,2013-08-15 15:38:00,
2013-08-15 09:53:00,58.5,36.0,30.07,SSE,148,3.0,5.0,44,0.00,,,0.00,weatherlink.com 1.10,2013-08-15 15:53:00,
2013-08-15 10:09:00,60.4,37.0,30.07,SSE,160,3.0,6.0,42,0.00,,,0.00,weatherlink.com 1.10,2013-08-15 16:09:00,
2013-08-15 10:39:00,63.6,36.0,30.06,SSE,155,3.0,9.0,36,0.00,,,0.00,weatherlink.com 1.10,2013-08-15 16:39:00,
2013-08-15 10:54:00,65.7,33.0,30.05,SSW,192,1.0,6.0,30,0.00,,,0.00,weatherlink.com 1.10,2013-08-15 16:54:00,
2013-08-15 11:09:00,67.4,31.0,30.04,South,183,1.0,9.0,26,0.00,,,0.00,weatherlink.com 1.10,2013-08-15 17:09:00,
2013-08-15 11:24:00,67.5,35.0,30.03,South,169,2.0,13.0,30,0.00,,,0.00,weatherlink.com 1.10,2013-08-15 17:24:00,
2013-08-15 11:39:00,68.4,35.0,30.03,South,174,2.0,12.0,29,0.00,,,0.00,weatherlink.com 1.10,2013-08-15 17:39:00,
2013-08-15 11:54:00,68.1,38.0,30.02,South,184,0.0,10.0,33,0.00,,,0.00,weatherlink.com 1.10,2013-08-15 17:54:00,
2013-08-15 12:09:00,67.7,30.0,30.02,ESE,110,12.0,21.0,24,0.00,,,0.00,weatherlink.com 1.10,2013-08-15 18:09:00,
2013-08-15 12:39:00,68.8,32.0,30.01,South,179,0.0,13.0,26,0.00,,,0.00,weatherlink.com 1.10,2013-08-15 18:39:00,
2013-08-15 13:09:00,67.5,35.0,30.02,South,179,1.0,9.0,30,0.00,,,0.00,weatherlink.com 1.10,2013-08-15 19:09:00,
2013-08-15 13:24:00,67.3,32.0,30.02,SSW,207,0.0,9.0,27,0.00,,,0.00,weatherlink.com 1.10,2013-08-15 19:24:00,
2013-08-15 13:39:00,69.3,31.0,30.02,SW,226,4.0,11.0,24,0.00,,,0.00,weatherlink.com 1.10,2013-08-15 19:39:00,
2013-08-15 13:54:00,67.8,31.0,30.03,ESE,121,10.0,18.0,25,0.00,,,0.00,weatherlink.com 1.10,2013-08-15 19:54:00,
2013-08-15 14:09:00,64.5,37.0,30.02,SSE,158,2.0,3.0,36,0.00,,,0.00,weatherlink.com 1.10,2013-08-15 20:09:00,
2013-08-15 14:24:00,68.9,33.0,30.01,SSW,207,0.0,3.0,26,0.00,,,0.00,weatherlink.com 1.10,2013-08-15 20:24:00,
2013-08-15 14:39:00,68.8,33.0,30.00,SSE,153,2.0,3.0,27,0.00,,,0.00,weatherlink.com 1.10,2013-08-15 20:39:00,
2013-08-15 14:54:00,71.1,35.0,29.99,SE,140,3.0,7.0,27,0.00,,,0.00,weatherlink.com 1.10,2013-08-15 20:54:00,
2013-08-15 15:09:00,72.8,28.0,29.99,South,176,1.0,13.0,19,0.00,,,0.00,weatherlink.com 1.10,2013-08-15 21:09:00,
2013-08-15 15:25:00,72.4,31.0,30.00,East,96,8.0,19.0,22,0.00,,,0.00,weatherlink.com 1.10,2013-08-15 21:25:00,
2013-08-15 15:39:00,69.0,31.0,30.01,South,171,0.0,14.0,24,0.00,,,0.00,weatherlink.com 1.10,2013-08-15 21:39:00,
2013-08-15 15:54:00,68.7,30.0,30.00,SSW,209,1.0,5.0,24,0.00,,,0.00,weatherlink.com 1.10,2013-08-15 21:54:00,
2013-08-15 16:09:00,70.2,32.0,30.00,SE,137,8.0,10.0,24,0.00,,,0.00,weatherlink.com 1.10,2013-08-15 22:09:00,
2013-08-15 16:24:00,70.6,30.0,30.00,SE,136,5.0,16.0,22,0.00,,,0.00,weatherlink.com 1.10,2013-08-15 22:24:00,
2013-08-15 16:39:00,70.2,28.0,30.00,SSE,151,2.0,13.0,21,0.00,,,0.00,weatherlink.com 1.10,2013-08-15 22:39:00,
2013-08-15 16:54:00,70.0,30.0,30.00,South,182,1.0,10.0,23,0.00,,,0.00,weatherlink.com 1.10,2013-08-15 22:54:00,
2013-08-15 17:09:00,70.3,35.0,30.00,South,185,0.0,6.0,27,0.00,,,0.00,weatherlink.com 1.10,2013-08-15 23:09:00,
2013-08-15 17:25:00,71.4,31.0,29.99,SSE,150,5.0,14.0,22,0.00,,,0.00,weatherlink.com 1.10,2013-08-15 23:25:00,
2013-08-15 17:39:00,71.8,29.0,29.99,East,93,7.0,10.0,20,0.00,,,0.00,weatherlink.com 1.10,2013-08-15 23:39:00,
2013-08-15 17:55:00,71.1,27.0,30.00,South,179,1.0,13.0,19,0.00,,,0.00,weatherlink.com 1.10,2013-08-15 23:55:00,
2013-08-15 18:10:00,70.4,29.0,30.00,South,175,3.0,10.0,21,0.00,,,0.00,weatherlink.com 1.10,2013-08-16 00:10:00,
2013-08-15 18:25:00,70.7,30.0,29.99,ESE,106,7.0,11.0,22,0.00,,,0.00,weatherlink.com 1.10,2013-08-16 00:25:00,
2013-08-15 18:40:00,70.2,31.0,29.99,SE,135,4.0,10.0,23,0.00,,,0.00,weatherlink.com 1.10,2013-08-16 00:40:00,
2013-08-15 18:55:00,69.6,30.0,29.99,SE,146,4.0,11.0,23,0.00,,,0.00,weatherlink.com 1.10,2013-08-16 00:55:00,
2013-08-15 19:10:00,69.1,31.0,30.00,SSE,167,2.0,7.0,24,0.00,,,0.00,weatherlink.com 1.10,2013-08-16 01:10:00,
2013-08-15 19:25:00,67.3,33.0,30.00,South,173,1.0,6.0,28,0.00,,,0.00,weatherlink.com 1.10,2013-08-16 01:25:00,
2013-08-15 19:40:00,63.3,36.0,30.01,South,184,0.0,0.0,37,0.00,,,0.00,weatherlink.com 1.10,2013-08-16 01:40:00,
2013-08-15 19:55:00,59.6,37.0,30.02,South,184,0.0,1.0,44,0.00,,,0.00,weatherlink.com 1.10,2013-08-16 01:55:00,
2013-08-15 20:10:00,56.8,38.0,30.02,SSW,194,0.0,2.0,49,0.00,,,0.00,weatherlink.com 1.10,2013-08-16 02:10:00,
2013-08-15 20:25:00,54.8,38.0,30.02,SSW,203,0.0,2.0,53,0.00,,,0.00,weatherlink.com 1.10,2013-08-16 02:25:00,
2013-08-15 20:40:00,52.8,37.0,30.02,SSW,203,1.0,2.0,56,0.00,,,0.00,weatherlink.com 1.10,2013-08-16 02:40:00,
2013-08-15 20:55:00,51.4,37.0,30.03,SSW,203,0.0,2.0,58,0.00,,,0.00,weatherlink.com 1.10,2013-08-16 02:55:00,
2013-08-15 21:10:00,50.3,38.0,30.04,SSW,203,0.0,2.0,62,0.00,,,0.00,weatherlink.com 1.10,2013-08-16 03:10:00,
2013-08-15 21:25:00,49.8,38.0,30.04,SSW,203,0.0,1.0,63,0.00,,,0.00,weatherlink.com 1.10,2013-08-16 03:25:00,
2013-08-15 21:40:00,49.1,35.0,30.05,SSW,203,0.0,1.0,59,0.00,,,0.00,weatherlink.com 1.10,2013-08-16 03:40:00,
2013-08-15 21:55:00,49.0,35.0,30.05,SSW,203,1.0,1.0,58,0.00,,,0.00,weatherlink.com 1.10,2013-08-16 03:55:00,
2013-08-15 22:10:00,48.0,35.0,30.06,SSW,203,0.0,1.0,61,0.00,,,0.00,weatherlink.com 1.10,2013-08-16 04:10:00,
2013-08-15 22:25:00,47.2,34.0,30.06,SSW,203,0.0,1.0,60,0.00,,,0.00,weatherlink.com 1.10,2013-08-16 04:25:00,
2013-08-15 22:40:00,46.2,34.0,30.06,SSW,203,1.0,1.0,63,0.00,,,0.00,weatherlink.com 1.10,2013-08-16 04:40:00,
2013-08-15 22:55:00,45.8,34.0,30.07,SSW,203,0.0,2.0,64,0.00,,,0.00,weatherlink.com 1.10,2013-08-16 04:55:00,
2013-08-15 23:10:00,45.1,34.0,30.07,SSW,203,0.0,1.0,66,0.00,,,0.00,weatherlink.com 1.10,2013-08-16 05:10:00,
2013-08-15 23:25:00,44.2,34.0,30.07,SSW,203,1.0,2.0,67,0.00,,,0.00,weatherlink.com 1.10,2013-08-16 05:25:00,
2013-08-15 23:40:00,43.6,34.0,30.07,SSW,203,0.0,1.0,70,0.00,,,0.00,weatherlink.com 1.10,2013-08-16 05:40:00,
2013-08-15 23:55:00,43.5,34.0,30.07,SSW,203,0.0,1.0,70,0.00,,,0.00,weatherlink.com 1.10,2013-08-16 05:55:00,